Location: Bathurst
(33.4193°S, 149.5775°E)
Time: 09:33:54
(UTC+10:00)

Vanguard 1 Rocket - Pass Details

Date: 16 June 2021
Orbit: 650 x 4226 km, 34.3° (Epoch: 02 August)

Event Time Altitude Azimuth Distance (km) Brightness Sun altitude
Rises 11:13:48 0° 283° (WNW) 7,254 12.0 32.1°
Reaches altitude 10° 11:19:26 10° 283° (WNW) 5,694 11.6 32.3°
Maximum altitude 11:34:30 89° 10° (N) 1,662 9.3 32.8°
Drops below altitude 10° 11:41:54 10° 99° (E) 2,977 10.1 33.0°
Sets 11:43:57 0° 98° (E) 3,691 10.5 33.1°
